This demonstration page uses our WeatherBlox Daily Observations layout. Learn more.

Hourly Observations for January 1, 2020

Temp ( °F °C ) Dew Point ( °F °C ) Humidity (%) Winds ( mph kmh ) Pressure ( in mb ) Visibility ( mi km ) Precip ( " mm )
12:54 am 00:54 Clear 23 -5 18 -7.8 81 81 S 6 9 29.85 1011 10 16.0934 0 0
1:54 am 01:54 Clear 24 -4.4 18 -7.8 77 77 S 6 9 29.8 1009 10 16.0934 0 0
2:54 am 02:54 Clear 24 -4.4 18 -7.8 77 77 S 6 9 29.78 1009 10 16.0934 0 0
3:54 am 03:54 Clear 26 -3.3 18 -7.8 71 71 SSE 5 7 29.75 1008 10 16.0934 0 0
4:54 am 04:54 Clear 28 -2.2 20 -6.7 72 72 SSW 8 13 29.72 1006 10 16.0934 0 0
5:54 am 05:54 Clear 27 -2.8 19 -7.2 72 72 SSW 6 9 29.69 1006 10 16.0934 0 0
6:54 am 06:54 Clear 27 -2.8 20 -6.7 75 75 SSW 12 19 29.67 1005 10 16.0934 0 0
7:54 am 07:54 Sunny 27 -2.8 20 -6.7 75 75 SSW 5 7 29.65 1004 10 16.0934 0 0
8:54 am 08:54 Sunny 30 -1.1 22 -5.6 72 72 SSW 6 9 29.63 1003 10 16.0934 0 0
9:54 am 09:54 Sunny 34 1.1 24 -4.4 67 67 SSW 13 20 29.6 1002 10 16.0934 0 0
10:54 am 10:54 Sunny 37 2.8 26 -3.3 65 65 SSW 12 19 29.57 1001 10 16.0934 0 0
11:54 am 11:54 Sunny 41 5 28 -2.2 60 60 SSW 15 24 29.53 1000 10 16.0934 0 0
12:54 pm 12:54 Sunny 43 6.1 29 -1.7 58 58 SSW 18 30 29.49 999 10 16.0934 0 0
1:54 pm 13:54 Sunny 43 6.1 29 -1.7 58 58 SSW 15 24 29.44 997 10 16.0934 0 0
2:54 pm 14:54 Sunny 46 7.8 30 -1.1 54 54 SSW 12 19 29.44 997 10 16.0934 0 0
3:54 pm 15:54 Sunny 43 6.1 29 -1.7 58 58 SSW 14 22 29.45 997 10 16.0934 0 0
4:54 pm 16:54 Mostly Sunny 42 5.6 30 -1.1 62 62 SSW 9 15 29.46 998 10 16.0934 0 0
5:54 pm 17:54 Clear 42 5.6 30 -1.1 62 62 W 7 11 29.47 998 10 16.0934 0 0
6:54 pm 18:54 Mostly Cloudy 41 5 30 -1.1 65 65 SW 12 19 29.45 997 10 16.0934 0 0
7:54 pm 19:54 Cloudy 41 5 30 -1.1 65 65 SSW 7 11 29.45 997 10 16.0934 0 0
8:54 pm 20:54 Cloudy 40 4.4 30 -1.1 68 68 SSW 6 9 29.45 997 10 16.0934 0 0
9:54 pm 21:54 Mostly Clear 38 3.3 29 -1.7 70 70 SW 7 11 29.45 997 10 16.0934 0 0
10:54 pm 22:54 Clear 37 2.8 28 -2.2 70 70 SW 5 7 29.44 997 10 16.0934 0 0
11:54 pm 23:54 Clear 33 0.6 27 -2.8 78 78 Calm 29.43 997 10 16.0934 0 0

Powered by AerisWeather